Weather History for Fayetteville, NC

Change the Weather History Date:

Thursday, August 29, 2013

  Actual Average Record
Temperature  
Mean Temperature 82 °F 78 °F  
Max Temperature 92 °F 88 °F 100 °F (1932)
Min Temperature 72 °F 68 °F 55 °F (1942)
Degree Days  
Heating Degree Days 0 0  
Month to date heating degree days 0 0  
Since 1 June heating degree days 0 0  
Since 1 July heating degree days 0 0  
Cooling Degree Days 17 13  
Month to date cooling degree days 409 427  
Year to date cooling degree days 1552 1614  
Since 1 June cooling degree days 1303 1330  
Growing Degree Days 33 (Base 50)    
Moisture  
Dew Point 72 °F    
Average Humidity 70    
Maximum Humidity 87    
Minimum Humidity 52    
Precipitation  
Precipitation 0.02 in 0.15 in 3.20 in (1949)
Month to date precipitation 5.54 5.21  
Year to date precipitation 34.56 31.15  
Sea Level Pressure  
Sea Level Pressure 29.89 in    
Wind  
Wind Speed 8 mph (North)    
Max Wind Speed 24 mph    
Max Gust Speed 29 mph    
Visibility 8 miles    
Events Rain    
T = Trace of Precipitation, MM = Missing Value Source: NWS Daily Summary

Daily Weather History Graph

Daily Weather History Graph

Search for Another Location

Airport:

Trip Planner

Search our weather history database for the weather conditions in past years. The results will help you decide how hot, cold, wet, or windy it might be!

Date:

Astronomy

Aug. 29, 2013 Rise Set
Actual Time 6:46 AM EDT 7:45 PM EDT
Civil Twilight 6:20 AM EDT 8:11 PM EDT
Nautical Twilight 5:49 AM EDT 8:42 PM EDT
Astronomical Twilight 5:17 AM EDT 9:14 PM EDT
Moon 12:43 AM EDT (8/29) 3:06 PM EDT (8/29)
Length of Visible Light 13h 51m
Length of Day
12h 59m
Last Quarter, 38% of the Moon is Illuminated
Aug 29
Last Quarter
Sep 5
New
Sep 12
First Quarter
Sep 19
Full
Sep 26
Last Quarter

Hourly Weather History & Observations

Time (EDT) Temp. Heat Index Dew Point Humidity Pressure Visibility Wind Dir Wind Speed Gust Speed Precip Events Conditions
12:53 AM 79.0 °F - 73.9 °F 84% 29.88 in 6.0 mi WSW 8.1 mph - N/A   Haze
1:53 AM 78.1 °F - 73.0 °F 84% 29.86 in 6.0 mi SW 6.9 mph - N/A   Haze
2:53 AM 78.1 °F - 72.0 °F 81% 29.86 in 7.0 mi WSW 9.2 mph - N/A   Partly Cloudy
3:53 AM 75.9 °F - 73.0 °F 91% 29.86 in 6.0 mi SW 10.4 mph - 0.01 in Rain Light Rain
4:53 AM 75.9 °F - 73.0 °F 91% 29.85 in 6.0 mi WSW 9.2 mph - 0.00 in   Overcast
5:53 AM 75.9 °F - 72.0 °F 87% 29.85 in 6.0 mi WSW 8.1 mph - 0.01 in   Overcast
6:53 AM 75.9 °F - 72.0 °F 87% 29.86 in 6.0 mi WSW 6.9 mph - N/A   Overcast
7:53 AM 77.0 °F - 72.0 °F 84% 29.88 in 5.0 mi WSW 5.8 mph - N/A   Haze
8:53 AM 77.0 °F - 72.0 °F 84% 29.89 in 5.0 mi West 8.1 mph - N/A   Haze
9:53 AM 80.1 °F 84.2 °F 73.0 °F 79% 29.89 in 6.0 mi West 4.6 mph - N/A   Haze
10:53 AM 86.0 °F 93.0 °F 73.0 °F 65% 29.90 in 8.0 mi North 9.2 mph - N/A   Mostly Cloudy
11:53 AM 88.0 °F 95.6 °F 73.0 °F 61% 29.90 in 8.0 mi NNE 11.5 mph - N/A   Partly Cloudy
12:17 PM 86.0 °F 93.4 °F 73.4 °F 66% 29.91 in 8.0 mi NNE 11.5 mph - N/A   Mostly Cloudy
12:28 PM 87.8 °F 95.6 °F 73.4 °F 62% 29.91 in 8.0 mi North 12.7 mph - N/A   Scattered Clouds
12:53 PM 88.0 °F 95.6 °F 73.0 °F 61% 29.89 in 8.0 mi NNE 10.4 mph - N/A   Partly Cloudy
1:53 PM 91.9 °F 99.5 °F 72.0 °F 52% 29.88 in 10.0 mi North 8.1 mph - N/A   Scattered Clouds
2:53 PM 81.0 °F 86.2 °F 73.9 °F 79% 29.89 in 10.0 mi NNE 6.9 mph - 0.00 in   Overcast
3:53 PM 88.0 °F 96.5 °F 73.9 °F 63% 29.88 in 10.0 mi NNE 11.5 mph 23.0 mph N/A   Clear
4:53 PM 89.1 °F 95.0 °F 71.1 °F 55% 29.88 in 10.0 mi NNE 9.2 mph - N/A   Clear
5:53 PM 88.0 °F 93.8 °F 71.1 °F 57% 29.88 in 10.0 mi NNE 10.4 mph - N/A   Scattered Clouds
6:53 PM 86.0 °F 92.2 °F 72.0 °F 63% 29.89 in 10.0 mi NE 6.9 mph - N/A   Scattered Clouds
7:53 PM 82.0 °F 86.3 °F 71.1 °F 69% 29.90 in 10.0 mi NE 9.2 mph - N/A   Clear
8:53 PM 80.1 °F 83.6 °F 71.1 °F 74% 29.94 in 10.0 mi NE 8.1 mph - N/A   Clear
9:53 PM 78.1 °F - 70.0 °F 76% 29.96 in 10.0 mi ENE 9.2 mph - N/A   Clear
10:53 PM 75.9 °F - 70.0 °F 82% 29.98 in 10.0 mi ENE 5.8 mph - N/A   Partly Cloudy
11:53 PM 73.9 °F - 70.0 °F 87% 29.98 in 10.0 mi ENE 4.6 mph - N/A   Clear